DW1449 Weather Reports


Display with metric or nautical units.
time (UTC)temp
F
wind
direction
speed
MPH
gust
MPH
rain 1hr
in
rain 24hr
in
rain mn
in
humidity
%
barometer
mb
20260509143535 58 0.0 0.0 0.00 0.00 0.00 54 1022.0
20260509143052 58 0.0 0.0 0.00 0.00 0.00 55 1022.2
20260509142532 58 0.0 0.0 0.00 0.00 0.00 53 1022.2
20260509142033 58 0.0 0.0 0.00 0.00 0.00 52 1022.2
20260509141549 58 0.0 0.0 0.00 0.00 0.00 51 1022.3
20260509141036 58 0.0 0.0 0.00 0.00 0.00 51 1022.4
20260509140532 58 0.0 0.0 0.00 0.00 0.00 48 1022.5
20260509140048 58 0.0 0.0 0.00 0.00 0.00 49 1022.5
20260509135536 59 0.0 0.0 0.00 0.00 0.00 46 1022.5
20260509135036 59 0.0 0.0 0.00 0.00 0.00 45 1022.6
20260509134553 59 0.0 0.0 0.00 0.00 0.00 47 1022.5
20260509134032 59 0.0 0.0 0.00 0.00 0.00 45 1022.6
20260509133535 59 0.0 0.0 0.00 0.00 0.00 42 1022.6
20260509133046 59 0.0 0.0 0.00 0.00 0.00 43 1022.7
20260509132532 59 0.0 0.0 0.00 0.00 0.00 42 1022.7
20260509132036 60 0.0 0.0 0.00 0.00 0.00 44 1022.8
20260509131546 60 0.0 0.0 0.00 0.00 0.00 42 1022.9
20260509131036 59 0.0 0.0 0.00 0.00 0.00 42 1022.8
20260509130535 59 0.0 0.0 0.00 0.00 0.00 42 1022.9
20260509130046 60 0.0 0.0 0.00 0.00 0.00 41 1023.0
20260509125534 60 0.0 0.0 0.00 0.00 0.00 42 1022.9
20260509125032 60 0.0 0.0 0.00 0.00 0.00 42 1023.0
20260509124545 61 0.0 0.0 0.00 0.00 0.00 38 1023.0
20260509124036 61 0.0 0.0 0.00 0.00 0.00 38 1023.1
20260509123535 61 0.0 0.0 0.00 0.00 0.00 42 1023.2
20260509123046 61 0.0 0.0 0.00 0.00 0.00 38 1023.2
20260509122536 62 0.0 0.0 0.00 0.00 0.00 43 1023.2
20260509122037 62 0.0 0.0 0.00 0.00 0.00 35 1023.1
20260509121541 63 0.0 0.0 0.00 0.00 0.00 35 1023.2
20260509121037 62 0.0 0.0 0.00 0.00 0.00 35 1023.3
20260509120533 62 0.0 0.0 0.00 0.00 0.00 35 1023.4
20260509120041 62 0.0 0.0 0.00 0.00 0.00 34 1023.4
20260509115532 62 0.0 0.0 0.00 0.00 0.00 35 1023.2
20260509115038 62 0.0 0.0 0.00 0.00 0.00 37 1023.3
20260509114556 62 0.0 0.0 0.00 0.00 0.00 35 1023.5
20260509114035 61 0.0 0.0 0.00 0.00 0.00 37 1023.3
20260509113535 61 0.0 0.0 0.00 0.00 0.00 36 1023.4
20260509113045 61 0.0 0.0 0.00 0.00 0.00 35 1023.4
20260509112536 61 0.0 0.0 0.00 0.00 0.00 38 1023.4
20260509112036 62 0.0 0.0 0.00 0.00 0.00 37 1023.5
20260509111541 61 0.0 0.0 0.00 0.00 0.00 37 1023.6
20260509111036 61 0.0 0.0 0.00 0.00 0.00 35 1023.6
20260509110532 61 0.0 0.0 0.00 0.00 0.00 35 1023.6
20260509110042 60 0.0 0.0 0.00 0.00 0.00 34 1023.6
20260509105535 60 0.0 0.0 0.00 0.00 0.00 35 1023.7
20260509105036 60 0.0 0.0 0.00 0.00 0.00 35 1023.7
20260509104549 61 0.0 0.0 0.00 0.00 0.00 34 1023.8
20260509104037 61 0.0 0.0 0.00 0.00 0.00 36 1023.8
20260509103535 61 0.0 0.0 0.00 0.00 0.00 36 1023.7
20260509103049 60 0.0 0.0 0.00 0.00 0.00 38 1023.8
20260509102535 60 0.0 0.0 0.00 0.00 0.00 35 1023.6
20260509102033 61 0.0 0.0 0.00 0.00 0.00 34 1023.8
20260509101549 61 0.0 0.0 0.00 0.00 0.00 36 1023.7
20260509101032 61 0.0 0.0 0.00 0.00 0.00 37 1023.8
20260509100535 60 0.0 0.0 0.00 0.00 0.00 34 1023.7
20260509100100 59 0.0 0.0 0.00 0.00 0.00 35 1023.8
20260509095535 60 0.0 0.0 0.00 0.00 0.00 35 1023.8
20260509095037 60 0.0 0.0 0.00 0.00 0.00 35 1023.9
20260509094545 59 0.0 0.0 0.00 0.00 0.00 37 1023.8
20260509094032 58 0.0 0.0 0.00 0.00 0.00 36 1024.0
20260509093534 58 0.0 0.0 0.00 0.00 0.00 37 1024.0
20260509093045 59 0.0 0.0 0.00 0.00 0.00 40 1024.0
20260509092534 59 0.0 0.0 0.00 0.00 0.00 37 1023.9
20260509092039 59 0.0 0.0 0.00 0.00 0.00 38 1024.0
20260509091541 58 0.0 0.0 0.00 0.00 0.00 39 1024.0
20260509091035 57 0.0 0.0 0.00 0.00 0.00 38 1024.0
20260509090536 57 0.0 0.0 0.00 0.00 0.00 41 1024.0
20260509090046 57 0.0 0.0 0.00 0.00 0.00 40 1024.1
20260509085535 57 0.0 0.0 0.00 0.00 0.00 41 1024.1
20260509085035 57 0.0 0.0 0.00 0.00 0.00 39 1024.1
20260509084548 56 0.0 0.0 0.00 0.00 0.00 40 1024.1
20260509084033 56 0.0 0.0 0.00 0.00 0.00 42 1024.1
20260509083538 56 0.0 0.0 0.00 0.00 0.00 39 1024.2
20260509083041 55 0.0 0.0 0.00 0.00 0.00 43 1024.2
20260509082534 55 0.0 0.0 0.00 0.00 0.00 42 1024.4
20260509082035 55 0.0 0.0 0.00 0.00 0.00 41 1024.4
20260509081542 55 0.0 0.0 0.00 0.00 0.00 42 1024.3
20260509081032 55 0.0 0.0 0.00 0.00 0.00 41 1024.4
20260509080535 54 0.0 0.0 0.00 0.00 0.00 43 1024.3
20260509080055 54 0.0 0.0 0.00 0.00 0.00 44 1024.4
20260509075532 54 0.0 0.0 0.00 0.00 0.00 44 1024.4
20260509075035 53 0.0 0.0 0.00 0.00 0.00 42 1024.4
20260509074543 53 0.0 0.0 0.00 0.00 0.00 44 1024.4
20260509074034 53 0.0 0.0 0.00 0.00 0.00 43 1024.4
20260509073537 53 0.0 0.0 0.00 0.00 0.00 45 1024.5
20260509073135 52 0.0 0.0 0.00 0.00 0.00 44 1024.4
20260509072533 52 0.0 0.0 0.00 0.00 0.00 47 1024.5
20260509072034 52 0.0 0.0 0.00 0.00 0.00 47 1024.4
20260509071545 52 0.0 0.0 0.00 0.00 0.00 50 1024.5
20260509071036 52 0.0 0.0 0.00 0.00 0.00 49 1024.5
20260509070534 51 0.0 0.0 0.00 0.00 0.00 51 1024.6
20260509070041 51 0.0 0.0 0.00 0.00 0.00 52 1024.6
20260509065532 51 0.0 0.0 0.00 0.00 0.00 51 1024.6
20260509065035 51 0.0 0.0 0.00 0.00 0.00 51 1024.6
20260509064547 50 0.0 0.0 0.00 0.00 0.00 51 1024.6
20260509064035 50 0.0 0.0 0.00 0.00 0.00 50 1024.5
20260509063537 49 0.0 0.0 0.00 0.00 0.00 53 1024.5
20260509063046 49 0.0 0.0 0.00 0.00 0.00 53 1024.7
20260509062536 49 0.0 0.0 0.00 0.00 0.00 53 1024.5
20260509062036 49 0.0 0.0 0.00 0.00 0.00 53 1024.5
20260509061551 48 0.0 0.0 0.00 0.00 0.00 54 1024.4
20260509061036 47 0.0 0.0 0.00 0.00 0.00 54 1024.6
20260509060537 47 0.0 0.0 0.00 0.00 0.00 54 1024.5
20260509060043 47 0.0 0.0 0.00 0.00 0.00 54 1024.6
20260509055532 47 0.0 0.0 0.00 0.00 0.00 55 1024.6
20260509055034 46 0.0 0.0 0.00 0.00 0.00 55 1024.7
20260509054545 46 0.0 0.0 0.00 0.00 0.00 56 1024.6
20260509054036 46 0.0 0.0 0.00 0.00 0.00 55 1024.6
20260509053538 45 0.0 0.0 0.00 0.00 0.00 57 1024.6
20260509053040 45 0.0 0.0 0.00 0.00 0.00 56 1024.6
20260509052535 44 0.0 0.0 0.00 0.00 0.00 56 1024.8
20260509052034 44 0.0 0.0 0.00 0.00 0.00 57 1024.6
20260509051556 44 0.0 0.0 0.00 0.00 0.00 57 1024.7
20260509051032 43 0.0 0.0 0.00 0.00 0.00 58 1024.7
20260509050535 43 0.0 0.0 0.00 0.00 0.00 59 1024.7
20260509050047 42 0.0 0.0 0.00 0.00 0.00 60 1024.7
20260509045535 42 0.0 0.0 0.00 0.00 0.00 61 1024.9
20260509045037 41 0.0 0.0 0.00 0.00 0.00 61 1024.8
20260509044542 41 0.0 0.0 0.00 0.00 0.00 61 1024.7
20260509044035 41 0.0 0.0 0.00 0.00 0.00 62 1024.7
20260509043536 41 0.0 0.0 0.00 0.00 0.00 62 1024.6
20260509043053 41 0.0 0.0 0.00 0.00 0.00 63 1024.8
20260509042532 40 0.0 0.0 0.00 0.00 0.00 63 1024.8
20260509042033 40 0.0 0.0 0.00 0.00 0.00 64 1024.7
20260509041548 40 0.0 0.0 0.00 0.00 0.00 65 1024.6
20260509041034 40 0.0 0.0 0.00 0.00 0.00 65 1024.6
20260509040535 39 0.0 0.0 0.00 0.00 0.00 66 1024.6
20260509040047 39 0.0 0.0 0.00 0.00 0.00 67 1024.5
20260509035535 39 0.0 0.0 0.00 0.00 0.00 67 1024.7
20260509035035 39 0.0 0.0 0.00 0.00 0.00 67 1024.8
20260509034548 39 0.0 0.0 0.00 0.00 0.00 68 1024.8
20260509034033 39 0.0 0.0 0.00 0.00 0.00 69 1024.8
20260509033535 38 0.0 0.0 0.00 0.00 0.00 70 1024.7
20260509033046 38 0.0 0.0 0.00 0.00 0.00 70 1024.7
20260509032532 38 0.0 0.0 0.00 0.00 0.00 71 1024.9
20260509032036 39 0.0 0.0 0.00 0.00 0.00 71 1024.7
20260509031547 38 0.0 0.0 0.00 0.00 0.00 72 1024.8
20260509031035 38 0.0 0.0 0.00 0.00 0.00 72 1024.8
20260509030537 38 0.0 0.0 0.00 0.00 0.00 73 1024.9
20260509030044 38 0.0 0.0 0.00 0.00 0.00 75 1024.9
20260509025535 38 0.0 0.0 0.00 0.00 0.00 76 1025.0
20260509025031 38 0.0 0.0 0.00 0.00 0.00 77 1025.1
20260509024541 38 0.0 0.0 0.00 0.00 0.00 77 1024.9
20260509024035 38 0.0 0.0 0.00 0.00 0.00 78 1024.9
20260509023534 38 0.0 0.0 0.00 0.00 0.00 78 1025.1
20260509023047 38 0.0 0.0 0.00 0.00 0.00 77 1025.1
20260509022534 39 0.0 0.0 0.00 0.00 0.00 74 1025.1
20260509022034 40 0.0 0.0 0.00 0.00 0.00 75 1025.2
20260509021548 40 0.0 0.0 0.00 0.00 0.00 75 1025.2
20260509021036 40 0.0 0.0 0.00 0.00 0.00 74 1025.2
20260509020534 41 0.0 0.0 0.00 0.00 0.00 74 1025.2
20260509020048 41 0.0 0.0 0.00 0.00 0.00 73 1025.3
20260509015535 41 0.0 0.0 0.00 0.00 0.00 73 1025.2
20260509015031 41 0.0 0.0 0.00 0.00 0.00 73 1025.1
20260509014541 41 0.0 0.0 0.00 0.00 0.00 73 1025.2
20260509014037 41 0.0 0.0 0.00 0.00 0.00 72 1025.1
20260509013537 41 0.0 0.0 0.00 0.00 0.00 71 1025.3
20260509013059 41 0.0 0.0 0.00 0.00 0.00 70 1025.3
20260509012535 41 0.0 0.0 0.00 0.00 0.00 70 1025.1
20260509012036 41 0.0 0.0 0.00 0.00 0.00 71 1025.2
20260509011538 41 0.0 0.0 0.00 0.00 0.00 71 1025.1
20260509011034 41 0.0 0.0 0.00 0.00 0.00 72 1025.2
20260509010531 41 0.0 0.0 0.00 0.00 0.00 72 1025.1
20260509010040 41 0.0 0.0 0.00 0.00 0.00 73 1025.3
20260509005532 40 0.0 0.0 0.00 0.00 0.00 74 1025.2
20260509005034 40 0.0 0.0 0.00 0.00 0.00 74 1025.3
20260509004608 40 0.0 0.0 0.00 0.00 0.00 74 1025.3
20260509004037 39 0.0 0.0 0.00 0.00 0.00 74 1025.5
20260509003535 39 0.0 0.0 0.00 0.00 0.00 73 1025.5
20260509003048 39 0.0 0.0 0.00 0.00 0.00 73 1025.5
20260509002533 39 0.0 0.0 0.00 0.00 0.00 72 1025.6
20260509002032 39 0.0 0.0 0.00 0.00 0.00 72 1025.8
20260509001543 39 0.0 0.0 0.00 0.00 0.00 73 1025.6
20260509001035 39 0.0 0.0 0.00 0.00 0.00 74 1025.9
20260509000532 38 0.0 0.0 0.00 0.00 0.00 76 1025.7
20260509000039 37 0.0 0.0 0.00 0.00 0.00 78 1025.6
20260508235535 35 0.0 0.0 0.00 0.00 0.00 78 1025.9
20260508235033 35 0.0 0.0 0.00 0.00 0.00 75 1025.7
20260508234539 36 0.0 0.0 0.00 0.00 0.00 73 1025.8
20260508234034 37 0.0 0.0 0.00 0.00 0.00 74 1026.0
20260508233534 36 0.0 0.0 0.00 0.00 0.00 75 1025.7
20260508233040 35 0.0 0.0 0.00 0.00 0.00 77 1026.0
20260508232535 35 0.0 0.0 0.00 0.00 0.00 76 1025.9
20260508232035 35 0.0 0.0 0.00 0.00 0.00 74 1026.0
20260508231540 35 0.0 0.0 0.00 0.00 0.00 74 1026.0
20260508231034 35 0.0 0.0 0.00 0.00 0.00 75 1026.0
20260508230532 35 0.0 0.0 0.00 0.00 0.00 75 1026.0
20260508230054 35 0.0 0.0 0.00 0.00 0.00 76 1026.0
20260508225535 35 0.0 0.0 0.00 0.00 0.00 76 1026.0
20260508225038 35 0.0 0.0 0.00 0.00 0.00 75 1025.9
20260508224542 35 0.0 0.0 0.00 0.00 0.00 75 1026.0
20260508224033 36 0.0 0.0 0.00 0.00 0.00 75 1026.1
20260508223536 36 0.0 0.0 0.00 0.00 0.00 74 1026.2
20260508223041 36 0.0 0.0 0.00 0.00 0.00 73 1026.1
20260508222535 37 0.0 0.0 0.00 0.00 0.00 71 1026.0
20260508222034 38 0.0 0.0 0.00 0.00 0.00 69 1026.0
20260508221541 39 0.0 0.0 0.00 0.00 0.00 66 1026.0
20260508221037 40 0.0 0.0 0.00 0.00 0.00 63 1026.0
20260508220532 41 0.0 0.0 0.00 0.00 0.00 61 1026.0
20260508220051 42 0.0 0.0 0.00 0.00 0.00 60 1025.8
20260508215537 42 0.0 0.0 0.00 0.00 0.00 59 1026.0
20260508215034 43 0.0 0.0 0.00 0.00 0.00 58 1026.0
20260508214537 43 0.0 0.0 0.00 0.00 0.00 57 1026.0
20260508214033 43 0.0 0.0 0.00 0.00 0.00 56 1025.9
20260508213534 43 0.0 0.0 0.00 0.00 0.00 56 1025.9
20260508213041 44 0.0 0.0 0.00 0.00 0.00 55 1025.9
20260508212534 44 0.0 0.0 0.00 0.00 0.00 55 1025.8
20260508212034 44 0.0 0.0 0.00 0.00 0.00 54 1025.8
20260508211548 43 0.0 0.0 0.00 0.00 0.00 53 1025.9
20260508211034 43 0.0 0.0 0.00 0.00 0.00 52 1025.8
20260508210533 43 0.0 0.0 0.00 0.00 0.00 51 1025.7
20260508210105 43 0.0 0.0 0.00 0.00 0.00 51 1025.8
20260508205534 43 0.0 0.0 0.00 0.00 0.00 50 1025.8
20260508205034 42 0.0 0.0 0.00 0.00 0.00 49 1025.6
20260508204541 42 0.0 0.0 0.00 0.00 0.00 49 1025.5
20260508204035 42 0.0 0.0 0.00 0.00 0.00 49 1025.5
20260508203534 43 0.0 0.0 0.00 0.00 0.00 49 1025.4
20260508203048 43 0.0 0.0 0.00 0.00 0.00 48 1025.5
20260508202534 44 0.0 0.0 0.00 0.00 0.00 47 1025.4
20260508202034 44 0.0 0.0 0.00 0.00 0.00 46 1025.3
20260508201544 44 0.0 0.0 0.00 0.00 0.00 46 1025.2
20260508201034 44 0.0 0.0 0.00 0.00 0.00 46 1025.2
20260508200533 45 0.0 0.0 0.00 0.00 0.00 46 1025.2
20260508200047 45 0.0 0.0 0.00 0.00 0.00 46 1025.1
20260508195532 45 0.0 0.0 0.00 0.00 0.00 46 1025.2
20260508195034 45 0.0 0.0 0.00 0.00 0.00 46 1025.2
20260508194546 45 0.0 0.0 0.00 0.00 0.00 45 1025.3
20260508194037 46 0.0 0.0 0.00 0.00 0.00 44 1025.1
20260508193531 46 0.0 0.0 0.00 0.00 0.00 44 1025.1
20260508193047 47 0.0 0.0 0.00 0.00 0.00 43 1025.1
20260508192536 47 0.0 0.0 0.00 0.00 0.00 43 1025.1
20260508192037 47 0.0 0.0 0.00 0.00 0.00 44 1025.1
20260508191545 47 0.0 0.0 0.00 0.00 0.00 46 1025.1
20260508191037 48 0.0 0.0 0.00 0.00 0.00 44 1025.1
20260508190536 48 0.0 0.0 0.00 0.00 0.00 43 1024.9
20260508190052 49 0.0 0.0 0.00 0.00 0.00 42 1024.9
20260508185533 49 0.0 0.0 0.00 0.00 0.00 41 1024.9
20260508185034 50 0.0 0.0 0.00 0.00 0.00 40 1024.9
20260508184557 50 0.0 0.0 0.00 0.00 0.00 39 1024.8
20260508184032 51 0.0 0.0 0.00 0.00 0.00 39 1024.7
20260508183536 51 0.0 0.0 0.00 0.00 0.00 39 1024.6
20260508183042 51 0.0 0.0 0.00 0.00 0.00 39 1024.7
20260508182537 52 0.0 0.0 0.00 0.00 0.00 38 1024.6
20260508182036 52 0.0 0.0 0.00 0.00 0.00 37 1024.6
20260508181601 52 0.0 0.0 0.00 0.00 0.00 36 1024.6
20260508181033 52 0.0 0.0 0.00 0.00 0.00 37 1024.6
20260508180535 53 0.0 0.0 0.00 0.00 0.00 36 1024.6
20260508180041 53 0.0 0.0 0.00 0.00 0.00 36 1024.6
20260508175536 53 0.0 0.0 0.00 0.00 0.00 37 1024.7
20260508175036 53 0.0 0.0 0.00 0.00 0.00 38 1024.5
20260508174547 53 0.0 0.0 0.00 0.00 0.00 39 1024.6
20260508174035 53 0.0 0.0 0.00 0.00 0.00 37 1024.5
20260508173540 53 0.0 0.0 0.00 0.00 0.00 36 1024.5
20260508173049 53 0.0 0.0 0.00 0.00 0.00 35 1024.5
20260508172535 53 0.0 0.0 0.00 0.00 0.00 36 1024.5
20260508172036 54 0.0 0.0 0.00 0.00 0.00 36 1024.5
20260508171543 54 0.0 0.0 0.00 0.00 0.00 35 1024.5
20260508171034 54 0.0 0.0 0.00 0.00 0.00 35 1024.4
20260508170536 54 0.0 0.0 0.00 0.00 0.00 35 1024.4
20260508170051 54 0.0 0.0 0.00 0.00 0.00 35 1024.4
20260508165535 54 0.0 0.0 0.00 0.00 0.00 35 1024.4
20260508165033 55 0.0 0.0 0.00 0.00 0.00 35 1024.2
20260508164559 55 0.0 0.0 0.00 0.00 0.00 35 1024.4
20260508164035 55 0.0 0.0 0.00 0.00 0.00 35 1024.4
20260508163535 55 0.0 0.0 0.00 0.00 0.00 34 1024.3
20260508163046 55 0.0 0.0 0.00 0.00 0.00 34 1024.2
20260508162535 55 0.0 0.0 0.00 0.00 0.00 35 1024.2
20260508162035 55 0.0 0.0 0.00 0.00 0.00 34 1024.0
20260508161549 55 0.0 0.0 0.00 0.00 0.00 33 1024.3
20260508161036 56 0.0 0.0 0.00 0.00 0.00 34 1024.3
20260508160535 56 0.0 0.0 0.00 0.00 0.00 34 1024.2
20260508160043 56 0.0 0.0 0.00 0.00 0.00 32 1024.4
20260508155534 56 0.0 0.0 0.00 0.00 0.00 32 1024.2
20260508155036 57 0.0 0.0 0.00 0.00 0.00 31 1024.2
20260508154544 57 0.0 0.0 0.00 0.00 0.00 32 1024.3
20260508154034 57 0.0 0.0 0.00 0.00 0.00 31 1024.1
20260508153536 57 0.0 0.0 0.00 0.00 0.00 33 1024.2
20260508153050 58 0.0 0.0 0.00 0.00 0.00 33 1024.1
20260508152535 57 0.0 0.0 0.00 0.00 0.00 31 1024.1
20260508152033 57 0.0 0.0 0.00 0.00 0.00 29 1024.1
20260508151559 58 0.0 0.0 0.00 0.00 0.00 30 1024.2
20260508151035 58 0.0 0.0 0.00 0.00 0.00 28 1024.2
20260508150535 58 0.0 0.0 0.00 0.00 0.00 30 1024.1
20260508150059 58 0.0 0.0 0.00 0.00 0.00 28 1024.1
20260508145536 58 0.0 0.0 0.00 0.00 0.00 27 1024.4
20260508145036 58 0.0 0.0 0.00 0.00 0.00 24 1024.1
20260508144609 58 0.0 0.0 0.00 0.00 0.00 27 1024.1
20260508144036 58 0.0 0.0 0.00 0.00 0.00 25 1024.2